Regional Weather Roundup
Issued by NWS Pendleton, OR

Home | Current Version | Previous Version | Text Only | Print | Product List | Glossary On
Versions: 1 2 3 4 5 6 7 8 9 10 11 12 13 14 15 16 17 18 19 20 21 22 23 24 25 26 27 28 29 30 31 32 33 34 35 36 37 38 39 40 41 42 43 44 45 46 47 48 49 50
634
ASUS46 KPDT 290625
RWRPDT
PENDLETON REGIONAL WEATHER ROUNDUP
NATIONAL WEATHER SERVICE PENDLETON OREGON
1100 PM PDT SUN MAY 28 2017

NOTE: FAIR INDICATES FEW OR NO CLOUDS BELOW 12,000 FEET WITH NO
SIGNIFICANT WEATHER AND/OR OBSTRUCTIONS TO VISIBILITY.

# INDICATES UNOFFICIAL STATION AND DATA

WAZ520-290710-
EAST SLOPES OF WASHINGTON CASCADES

CITY            SKY/WX      TMP DP  RH  WIND    PRES   REMARKS
#BULLFROG       N/A         60  53  78  CALM    N/A
#CLE ELUM HS    N/A         61  50  67  CALM    30.01R
#CLE ELUM LAKE  N/A         67  46  47  CALM    30.04R
#EASTON DOT     N/A         61  48  62  CALM    N/A
#ELK HTS DOT    N/A         67  67  100 SW6     N/A
#GLENWOOD       N/A         56  51  83  CALM    29.97R
#NELSON 3SW     N/A         59  48  67  CALM    30.17S
#NILE           N/A         57  48  72  CALM    29.31R
#TEANAWAY 4NE   N/A         60  50  69  CALM    N/A
#TROUT LAKE 1NE N/A         61  49  65  CALM    29.97S
#TROUT LAKE 1E  N/A         55  50  83  CALM    30.08R
$$

WAZ521-290710-
SIMCOE HIGHLANDS

CITY            SKY/WX      TMP DP  RH  WIND    PRES   REMARKS
#BICKLETON HS   N/A         65  51  60  N2      30.06F
#CENTERVILLE 1SWN/A         61  48  62  CALM    29.92R
#GOLDENDALE 1NE N/A         65  36  34  NW6     N/A
#GOLDENDALE 4W  N/A         64  21  19  N2      30.06S
#GOODNOE HILLS  N/A         74  46  37  E3      N/A
#LYLE 6NE       N/A         71  53  53  SW1     29.92R
#PITT 4SE       N/A         64  45  50  CALM    29.97R
$$

WAZ026-290710-
KITTITAS VALLEY

CITY            SKY/WX      TMP DP  RH  WIND    PRES   REMARKS
ELLENSBURG AP   CLEAR       68  47  47  CALM    30.05R
6HR MIN TEMP:   66; 6HR MAX TEMP:   89;

YTC-OPS AREA    CLEAR       72  34  25  VRB3    30.13S
6HR MIN TEMP:   71; 6HR MAX TEMP:   79;

#ELLENSBURG CWU N/A         66  50  56  CALM    29.92R
#ELLENSBURG 3NE N/A         67  50  54  CALM    28.12S
#KITTITAS 4N    N/A         64  46  52  CALM    30.07R
#KITTITAS 3S    N/A         56  51  83  CALM    29.97R
#MANASTASH RDG  N/A         74  73  97  SE3     N/A
#ROCKY CYN DOT  N/A         67  47  49  N3      N/A
#RYEGRASS DOT   N/A         72  41  33  CALM    N/A
#THORP 6N       N/A         65  47  52  CALM    30.00R
$$

WAZ027-290710-
YAKIMA VALLEY

CITY            SKY/WX      TMP DP  RH  WIND    PRES   REMARKS
SUNNYSIDE AP    CLEAR       62  49  62  CALM    29.99R
YAKIMA AIRPORT  CLEAR       67  52  59  W6      30.02R
6HR MIN TEMP:   66; 6HR MAX TEMP:   92;

YAKIMA-VAGABOND CLEAR       66  41  40  E6      30.01R
6HR MIN TEMP:   66; 6HR MAX TEMP:   89;

#DONALD 2NE     N/A         77  16  10  S3      28.85R
#GRANDVIEW      N/A         67  45  45  CALM    29.97R
#MABTON         N/A         65  49  56  CALM    29.98R
#MOXEE 2E       N/A         66  N/A N/A NW2     30.01R
#NACHES 2SW     N/A         63  51  65  NW1     30.04S
#OUTLOOK DOT    N/A         73  43  34  CALM    29.96R
#PARKER DOT     N/A         77  41  28  CALM    29.98F
#TERRACE HTS    N/A         72  47  41  CALM    29.93R
#TOPPENISH      N/A         74  48  40  CALM    29.88R
#I82 S UMTANUM RN/A         67  41  39  N6      N/A
#UNION GAP DOT  N/A         69  50  51  N1      N/A
#WEST VALLEY    N/A         67  50  54  CALM    29.95R
#W YAKIMA       N/A         70  49  47  W6      29.96R
#WILEY CITY 3W  N/A         65  44  46  CALM    30.00S
#ZILLAH DOT     N/A         67  49  52  S1      N/A
$$

WAZ028-290710-
LOWER COLUMBIA BASIN...WASHINGTON

CITY            SKY/WX      TMP DP  RH  WIND    PRES   REMARKS
PASCO           CLEAR       62  57  84  N3      29.97R
6HR MIN TEMP:   62; 6HR MAX TEMP:   93;

PROSSER AWOS    N/A         64  50  60  CALM    30.02R
RICHLAND AWOS   CLEAR       66  53  63  CALM    29.97R
#BENTON CITY    N/A         68  46  45  CALM    29.86R
#CONNELL 5N     N/A         65  51  60  CALM    29.95F
#CONNELL 5NW    N/A         65  51  60  CALM    29.90S
#ELTOPIA 6NW    N/A         74  52  46  CALM    28.96R
#KAHLOTUS       N/A         68  51  55  CALM    29.95S
#KENNEWICK 3S   N/A         75  42  31  CALM    29.95R
#PATERSON       N/A         74  48  40  E1      29.93R
#PROSSER DOT    N/A         66  50  56  CALM    29.99S
#SAGEMOOR 2W    N/A         71  51  49  NW2     29.81R
#TOUCHET 2S     N/A         54  51  90  CALM    29.93R
#WEST PASCO     N/A         71  49  46  CALM    29.95S
$$

WAZ029-290710-
FOOTHILLS OF THE BLUES...WASHINGTON

CITY            SKY/WX      TMP DP  RH  WIND    PRES   REMARKS
WALLA WALLA AP  CLEAR       65  50  58  E13     30.00S
6HR MIN TEMP:   64; 6HR MAX TEMP:   88;

#CLYDE 6NW      N/A         59  46  62  CALM    29.94S
#DAYTON SCHOOL  N/A         63  46  54  VRB2    30.04F
#LOWDEN 2SE     N/A         61  54  78  CALM    29.94R
#PLEASANT VIEW 1N/A         75  39  27  CALM    29.98S
#PRESCOTT       N/A         60  53  78  CALM    29.94S
#WHITMAN COLLEGEN/A         68  52  57  CALM    29.99S
#WAITSBURG 6SSE N/A         60  48  64  SE2     29.98S
#WAITSBURG 8N   N/A         86  N/A N/A CALM    30.05S
#WALLA WALLA 5E N/A         60  49  67  NE7     N/A
#WHITMAN MISSIONN/A         63  55  75  CALM    29.96S
$$

WAZ030-290710-
BLUE MOUNTAINS...WASHINGTON

CITY            SKY/WX      TMP DP  RH  WIND    PRES   REMARKS
#DIXIE 5SE      N/A         71  38  30  E2      30.02S
$$

ORZ009-041-WAZ024-290710-
COLUMBIA RIVER GORGE

CITY            SKY/WX      TMP DP  RH  WIND    PRES   REMARKS
HOOD RIVER AP   PTCLDY      64  52  65  CALM    30.01R
THE DALLES AP   CLEAR       72  51  48  VRB3    29.95R
6HR MIN TEMP:   70; 6HR MAX TEMP:   96;

#ARLINGTON AIRPON/A         74  48  40  E3      29.95S
#CELILO DOT     N/A         74  48  40  SW1     N/A
#LYLE           N/A         75  55  50  NE6     29.96R
#MARYHILL       N/A         75  43  32  N1      29.84R
#MURDOCK        N/A         73  56  55  NW8     29.92R
#RUFUS DOT      N/A         73  51  46  S8      N/A
#SMITHVILLE     N/A         73  55  53  N6      29.89R

$$

ORZ510-290710-
NORTH CENTRAL OREGON

CITY            SKY/WX      TMP DP  RH  WIND    PRES   REMARKS
#ANTELOPE       N/A         67  44  43  NE2     29.79S
#CHENOWITH 1W   N/A         51  35  54  NW14    N/A
#DUFUR          N/A         59  49  69  W2      29.92S
#DUFUR 9E       N/A         76  43  31  E13     29.97S
#GRASS VALLEY 1SN/A         59  45  60  CALM    30.06S
#KENT DOT       N/A         67  37  33  E8      N/A
#MAUPIN SCHOOL  N/A         74  49  41  CALM    30.03R
#MORO SCHOOL    N/A         59  50  72  CALM    30.11S
#SHANIKO 5WSW   N/A         68  35  29  N16     N/A
#SHANIKO 4NW    N/A         66  38  36  E13     30.11S
#TYGH VALLEY 2NEN/A         68  46  45  N1      29.94R
#WAPANITIA AIRPON/A         64  47  54  CALM    29.96S
#WASCO DOT      N/A         57  48  72  S2      N/A
#WASCO 5NE      N/A         61  46  58  CALM    29.94S
$$

ORZ511-290710-
CENTRAL OREGON

CITY            SKY/WX      TMP DP  RH  WIND    PRES   REMARKS
BEND AIRPORT    CLEAR       68  39  35  NW8     30.05R
MADRAS AIRPORT  CLEAR       64  39  40  N9      30.07R
PRINEVILLE AP   CLEAR       57  39  51  CALM    30.08R
REDMOND AIRPORT CLEAR       69  38  32  NW8     30.07R
6HR MIN TEMP:   69; 6HR MAX TEMP:   88;

#ASHWOOD SCHOOL N/A         69  41  36  CALM    30.01S
#BEND 1SW       N/A         66  43  43  CALM    N/A
#BEND-AWBREY    N/A         68  44  42  N2      29.92S
#BEND-KIM LN    N/A         67  45  45  W3      29.88R
#CULVER         N/A         64  44  48  CALM    29.87R
#CULVER 8W      N/A         70  37  30  N1      30.07R
#MADRAS 4S      N/A         69  16  13  NW2     N/A
#POWELL BUTTE   N/A         69  39  33  S3      30.05R
#PRINEVILLE     N/A         68  42  39  CALM    29.98R
#PRINEVILLE 3N  N/A         65  46  50  NW2     29.93R
#WARM SPRINGS   N/A         74  45  35  CALM    29.81R

$$


ORZ509-290710-
EAST SLOPES OF OREGON CASCADES

CITY            SKY/WX      TMP DP  RH  WIND    PRES   REMARKS
SISTERS AWOS    N/A         66  46  48  CALM    30.07R
#CAMP SHERMAN   N/A         58  45  62  CALM    30.00R
#LA PINE 4SW    N/A         58  37  45  CALM    30.15R
#LA PINE 4NW    N/A         59  44  57  CALM    29.99R
#LAVA BUTTE DOT N/A         66  39  37  N2      N/A
#SISTERS 3N     N/A         60  40  47  CALM    30.09S
#SUNRIVER       N/A         60  44  55  CALM    29.95R
#TUMALO 3W      N/A         69  44  40  NW8     29.80R
#WANOGA BUTTE D N/A         58  37  45  NE8     N/A

$$

ORZ044-290710-
LOWER COLUMBIA BASIN...OREGON

CITY            SKY/WX      TMP DP  RH  WIND    PRES   REMARKS
HERMISTON       CLEAR       64  51  63  CALM    29.97R
6HR MIN TEMP:   64; 6HR MAX TEMP:   92;

#BOARDMAN SCHOOLN/A         71  53  53  CALM    29.95R
#BOARDMAN 8SW   N/A         72  51  48  N3      29.94R
#ECHO 8SW       N/A         62  49  62  S1      29.98S
#IONE SCHOOL    N/A         68  45  44  CALM    29.95F
#UMATILLA       N/A         71  51  49  CALM    29.87S
$$

ORZ507-290710-
NORTHERN FOOTHILLS OF THE BLUES

CITY            SKY/WX      TMP DP  RH  WIND    PRES   REMARKS
PENDLETON AIRPT CLEAR       63  50  62  SE8     30.01S
6HR MIN TEMP:   63; 6HR MAX TEMP:   86;

#ADAMS 3WNW     N/A         56  50  80  CALM    29.95S
#ATHENA         N/A         55  48  77  CALM    29.99R
#CAYUSE         N/A         69  49  49  E7      29.93S
#HELIX SCHOOL   N/A         58  47  67  CALM    29.96S
#HELIX 3N       N/A         65  45  48  CALM    30.00F
#HOLDMAN 5SE    N/A         59  48  67  SE3     30.00S
#HOLDMAN 6E     N/A         64  45  50  CALM    29.76S
#M-F FERNDALE   N/A         68  49  51  CALM    29.96R
#M-F GROVE ELEM N/A         66  45  47  N1      29.97S
#M-FREEWATER 5SEN/A         66  46  48  CALM    30.00S
#PENDLETON DNTN N/A         66  45  47  NE2     29.98S
#PDT AQUATIC CTRN/A         65  45  48  CALM    30.05S
#PDT SUNRIDGE   N/A         62  52  70  CALM    30.02R
#PENDLETON 7NW  N/A         62  49  62  CALM    31.53S
#PILOT ROCK 1S  N/A         68  44  42  CALM    30.04S
#PILOT ROCK     N/A         63  45  52  CALM    30.05S
#TUTUILLA       N/A         59  50  72  CALM    29.98S
#UMAPINE 2E     N/A         65  53  65  CALM    29.95R
#WESTON SCHOOL  N/A         66  43  43  CALM    29.96S

$$

ORZ508-290710-
SOUTHERN FOOTHILLS OF THE BLUES

CITY            SKY/WX      TMP DP  RH  WIND    PRES   REMARKS
LEXINGTON       CLEAR       64  41  43  SE8     30.05S
#AJAX           N/A         71  35  27  S8      30.18S
#CONDON 5W      N/A         67  35  30  E10     30.09S
#FOSSIL SCHOOL  N/A         61  44  53  CALM    30.02R
#HEPPNER EOC    N/A         66  43  43  SE8     29.89S
#LEXINGTON 2SE  N/A         69  43  39  CALM    29.99S
#MIKKALO        N/A         69  41  36  E6      30.13S
#OLEX 4N        N/A         70  44  39  E1      29.97S
#RUGGS 5NE      N/A         65  38  37  E1      30.27S
#RUGGS 2SW      N/A         63  43  48  S6      29.97S

$$

ORZ502-503-290710-
BLUE MOUNTAINS

CITY            SKY/WX      TMP DP  RH  WIND    PRES   REMARKS
MEACHAM         CLEAR       52  43  71  CALM    30.15S
6HR MIN TEMP:   52; 6HR MAX TEMP:   79;

#GRANITE        N/A         48  36  63  CALM    29.85S
#GREENHORN 9SW  N/A         53  44  71  CALM    30.14R
#HARDMAN 10S    N/A         59  40  49  CALM    30.08R
#LONG CREEK HS  N/A         57  47  69  CALM    N/A
#PIKES PEAK     N/A         73  34  24  CALM    27.99S
#SUMMERVILLE 5NWN/A         57  40  53  NW3     30.12S
#TOLLGATE       N/A         55  30  38  CALM    30.04S
#TROY SCHOOL    N/A         60  53  78  CALM    29.86R
#UKIAH          N/A         53  47  80  CALM    29.94R
#WESTON 4E      N/A         65  42  43  E6      29.92S
$$

ORZ505-290710-
JOHN DAY BASIN

CITY            SKY/WX      TMP DP  RH  WIND    PRES   REMARKS
JOHN DAY        CLEAR       66  38  36  CALM    30.13R
#ANTELOPE 9ESE  N/A         70  43  38  CALM    N/A
#DAYVILLE SCHOOLN/A         70  42  36  CALM    30.01S
#MITCHELL       N/A         64  49  58  E1      30.23R
#MITCHELL 8NW   N/A         70  40  34  CALM    29.94R
#MONUMENT HS    N/A         64  43  46  CALM    30.00R
#MT. VERNON 5SE N/A         67  36  32  CALM    30.08S
#SPRAY SCHOOL   N/A         64  N/A N/A CALM    N/A
$$

ORZ506-290710-
OCHOCO AND JOHN DAY HIGHLANDS

CITY            SKY/WX      TMP DP  RH  WIND    PRES   REMARKS
#HORSE RIDGE DO N/A         62  35  36  SE2     N/A
#IZEE 6NW       N/A         52  42  69  CALM    N/A
#PAULINA ODOT   N/A         67  37  33  NE2     N/A
#PINE MTN OBS   N/A         62  33  34  CALM    N/A
#PRAIRIE CITY   N/A         60  42  51  CALM    30.26
#SENECA         N/A         56  N/A N/A SE1     N/A
#SENECA 9NW     N/A         49  40  71  CALM    30.01R
$$

ORZ049-290710-
GRANDE RONDE VALLEY

CITY            SKY/WX      TMP DP  RH  WIND    PRES   REMARKS
LA GRANDE       CLEAR       61  43  51  CALM    30.09S
#COVE           N/A         62  48  60  NE3     30.12S
#COVE SCHOOL    N/A         62  45  54  CALM    30.11S
#COVE 6NW       N/A         59  45  60  CALM    30.00R
#ELGIN 3N       N/A         56  40  55  CALM    30.07S
#ELGIN 1E       N/A         59  46  62  CALM    N/A
#IMBLER SCHOOL  N/A         57  44  62  CALM    30.05R
#ISLAND CITY 4N N/A         64  58  81  CALM    30.04R
#LA GRANDE-LEFFEN/A         66  40  38  N7      30.09S
#UNION 1S       N/A         62  47  58  CALM    29.99S
$$

ORZ050-290710-
WALLOWA COUNTY

CITY            SKY/WX      TMP DP  RH  WIND    PRES   REMARKS
JOSEPH AIRPORT  CLEAR       57  39  51  S8      30.19S
#ENTERPRISE HS  N/A         56  46  69  CALM    29.90S
#IMNAHA SCHOOL  N/A         65  50  58  SE2     30.07R
#IMNAHA 10S     N/A         63  47  56  SW3     30.10R
#JOSEPH         N/A         59  42  53  CALM    30.15S
#JOSEPH 3N      N/A         53  40  61  CALM    30.18S
#LOSTINE        N/A         62  42  48  S5      29.83R
#LOSTINE 3SE    N/A         57  45  64  CALM    30.18S
#MT HOWARD 8000 N/A         50  34  54  W1      30.39S
#PROMISE 1S     N/A         58  49  72  S3      30.09F
#WALLOWA LAKE   N/A         59  41  51  SW3     30.22S
#WALLOWA SCHOOL N/A         56  48  74  CALM    30.08S



$$



USA.gov is the U.S. government's official web portal to all federal, state and local government web resources and services.